KG6QHS-1 Weather Reports


time (UTC)temp
F
wind
direction
speed
knots
gust
knots
rain 1hr
in
rain 24hr
in
rain mn
in
humidity
%
barometer
mb
20260506233236 54 23 1.7 2.6 0.00 0.00 0.00 90 1022.7
20260506232735 55 339 0.0 6.1 0.00 0.00 0.00 89 1022.6
20260506232235 55 294 2.6 6.1 0.00 0.00 0.00 88 1022.7
20260506231705 55 21 4.3 7.8 0.00 0.00 0.00 88 1022.6
20260506230735 55 282 5.2 6.1 0.00 0.00 0.00 87 1022.7
20260506230235 56 22 1.7 1.7 0.00 0.00 0.00 88 1022.7
20260506225705 55 34 0.0 6.1 0.00 0.00 0.00 88 1022.7
20260506225235 55 250 2.6 6.1 0.00 0.00 0.00 87 1022.7
20260506224735 55 306 1.7 2.6 0.00 0.00 0.00 87 1022.8
20260506224234 56 252 0.0 1.7 0.00 0.00 0.00 87 1022.7
20260506223735 56 293 0.0 4.3 0.00 0.00 0.00 88 1022.9
20260506223234 55 348 0.0 4.3 0.00 0.00 0.00 88 1022.9
20260506222734 56 339 4.3 7.8 0.00 0.00 0.00 88 1022.7
20260506221234 56 300 0.0 8.7 0.00 0.00 0.00 86 1022.7
20260506220734 56 252 4.3 8.7 0.00 0.00 0.00 86 1022.7
20260506220234 56 287 1.7 6.1 0.00 0.00 0.00 86 1022.7
20260506215734 56 255 1.7 6.1 0.00 0.00 0.00 88 1022.7
20260506214734 55 308 2.6 8.7 0.00 0.00 0.00 87 1022.6
20260506213734 55 238 1.7 6.1 0.00 0.00 0.00 88 1022.6
20260506213233 55 349 2.6 6.1 0.00 0.00 0.00 89 1022.8
20260506212733 55 35 1.7 4.3 0.00 0.00 0.00 90 1022.6
20260506212233 54 321 2.6 4.3 0.00 0.00 0.00 89 1022.6
20260506211735 54 267 0.0 4.3 0.00 0.00 0.00 91 1022.6
20260506211233 54 302 0.0 4.3 0.00 0.00 0.00 90 1022.6
20260506210733 54 303 1.7 4.3 0.00 0.00 0.00 90 1022.6
20260506210233 54 200 1.7 1.7 0.00 0.00 0.00 91 1022.5
20260506205733 54 7 1.7 6.1 0.00 0.00 0.00 90 1022.4
20260506205233 54 34 1.7 6.1 0.00 0.00 0.00 89 1022.4
20260506204733 55 16 0.0 1.7 0.00 0.00 0.00 89 1022.5
20260506204233 55 31 0.0 7.8 0.00 0.00 0.00 89 1022.4
20260506203733 55 281 0.0 7.8 0.00 0.00 0.00 88 1022.5
20260506202733 55 126 0.0 4.3 0.00 0.00 0.00 88 1022.4
20260506202233 55 300 2.6 8.7 0.00 0.00 0.00 89 1022.4
20260506201732 55 314 4.3 8.7 0.00 0.00 0.00 87 1022.4
20260506201232 55 292 1.7 12.2 0.00 0.00 0.00 87 1022.4
20260506200732 55 237 0.0 12.2 0.00 0.00 0.00 87 1022.4
20260506195732 55 308 0.0 4.3 0.00 0.00 0.00 87 1022.5
20260506195232 55 301 1.7 4.3 0.00 0.00 0.00 86 1022.4
20260506194232 55 228 0.0 7.8 0.00 0.00 0.00 87 1022.3
20260506193731 55 282 1.7 7.8 0.00 0.00 0.00 86 1022.3
20260506192232 54 219 1.7 8.7 0.00 0.00 0.00 85 1022.1
20260506191731 55 226 2.6 4.3 0.00 0.00 0.00 87 1022.1
20260506191231 54 179 0.0 4.3 0.00 0.00 0.00 87 1021.9
20260506190731 54 269 0.0 4.3 0.00 0.00 0.00 87 1021.9
20260506190231 54 293 0.0 1.7 0.00 0.00 0.00 88 1021.7
20260506185731 54 314 0.0 1.7 0.00 0.00 0.00 88 1021.7
20260506185231 54 216 1.7 2.6 0.00 0.00 0.00 88 1021.7
20260506184730 54 301 2.6 2.6 0.00 0.00 0.00 88 1021.8
20260506184230 54 318 2.6 4.3 0.00 0.00 0.00 87 1022.1
20260506183731 54 297 0.0 4.3 0.00 0.00 0.00 87 1021.9
20260506183230 54 26 0.0 1.7 0.00 0.00 0.00 87 1022.0
20260506182730 54 118 0.0 7.8 0.00 0.00 0.00 86 1021.9
20260506182230 54 276 4.3 7.8 0.00 0.00 0.00 85 1021.9
20260506181730 54 257 0.0 1.7 0.00 0.00 0.00 85 1021.9
20260506181230 55 274 0.0 1.7 0.00 0.00 0.00 86 1021.9
20260506180230 54 265 0.0 2.6 0.00 0.00 0.00 85 1021.9
20260506175730 54 283 0.0 4.3 0.00 0.00 0.00 85 1021.8
20260506175229 54 295 1.7 4.3 0.00 0.00 0.00 86 1021.7
20260506174730 54 244 0.0 2.6 0.00 0.00 0.00 86 1021.8
20260506174230 54 295 1.7 2.6 0.00 0.00 0.00 86 1021.7
20260506173729 54 237 0.0 1.7 0.00 0.00 0.00 86 1021.8
20260506173230 54 221 0.0 4.3 0.00 0.00 0.00 87 1021.7
20260506172729 54 307 0.0 4.3 0.00 0.00 0.00 86 1021.6
20260506172229 54 139 0.0 1.7 0.00 0.00 0.00 86 1021.5
20260506171729 54 238 0.0 1.7 0.00 0.00 0.00 86 1021.3
20260506170729 54 239 0.0 4.3 0.00 0.00 0.00 86 1021.2
20260506165729 54 338 0.0 2.6 0.00 0.00 0.00 86 1021.2
20260506165229 54 15 1.7 2.6 0.00 0.00 0.00 86 1021.2
20260506164729 54 243 0.0 2.6 0.00 0.00 0.00 86 1021.2
20260506164229 54 170 0.0 1.7 0.00 0.00 0.00 86 1021.1
20260506163729 54 246 0.0 2.6 0.00 0.00 0.00 86 1021.2
20260506163228 54 216 0.0 2.6 0.00 0.00 0.00 86 1021.2
20260506162228 54 248 0.0 0.0 0.00 0.00 0.00 86 1021.0
20260506161227 54 283 0.0 4.3 0.00 0.00 0.00 86 1021.0
20260506160728 54 264 0.0 4.3 0.00 0.00 0.00 85 1021.0
20260506160228 54 216 2.6 2.6 0.00 0.00 0.00 85 1021.0
20260506155728 54 288 0.0 2.6 0.00 0.00 0.00 85 1021.0
20260506155228 54 335 1.7 2.6 0.00 0.00 0.00 85 1021.0
20260506154728 54 204 0.0 1.7 0.00 0.00 0.00 86 1020.9
20260506154227 54 286 0.0 4.3 0.00 0.00 0.00 86 1020.9
20260506153727 54 237 1.7 4.3 0.00 0.00 0.00 86 1020.9
20260506153227 54 304 1.7 4.3 0.00 0.00 0.00 86 1020.8
20260506152727 54 245 0.0 2.6 0.00 0.00 0.00 86 1020.7
20260506152227 54 220 0.0 2.6 0.00 0.00 0.00 86 1020.4
20260506151227 54 293 0.0 2.6 0.00 0.00 0.00 86 1020.3
20260506150727 54 347 1.7 4.3 0.00 0.00 0.00 86 1020.3
20260506150227 54 237 0.0 4.3 0.00 0.00 0.00 86 1020.4
20260506145227 53 113 0.0 1.7 0.00 0.00 0.00 86 1020.2
20260506144726 53 120 0.0 1.7 0.00 0.00 0.00 86 1020.3
20260506144227 53 115 0.0 1.7 0.00 0.00 0.00 86 1020.4
20260506143226 53 223 0.0 1.7 0.00 0.00 0.00 87 1020.6
20260506142726 53 260 1.7 1.7 0.00 0.00 0.00 87 1020.5
20260506141726 53 305 0.0 0.0 0.00 0.00 0.00 88 1020.4
20260506141226 53 304 0.0 1.7 0.00 0.00 0.00 88 1020.4
20260506140726 53 233 1.7 1.7 0.00 0.00 0.00 88 1020.2
20260506140225 53 136 0.0 1.7 0.00 0.00 0.00 88 1019.9
20260506135725 53 146 0.0 2.6 0.00 0.00 0.00 88 1019.7
20260506135226 53 103 2.6 2.6 0.00 0.00 0.00 88 1019.8
20260506134725 53 132 1.7 1.7 0.00 0.00 0.00 89 1019.8
20260506134225 53 248 0.0 2.6 0.00 0.00 0.00 89 1020.0
20260506133726 53 136 1.7 2.6 0.00 0.00 0.00 89 1019.6
20260506133225 53 161 0.0 2.6 0.00 0.00 0.00 89 1019.7
20260506132725 53 134 1.7 2.6 0.00 0.00 0.00 89 1019.6
20260506132225 53 256 0.0 0.0 0.00 0.00 0.00 89 1020.0
20260506131725 53 256 0.0 0.0 0.00 0.00 0.00 89 1020.0
20260506131225 53 120 0.0 0.0 0.00 0.00 0.00 89 1020.0
20260506130725 53 120 0.0 1.7 0.00 0.00 0.00 89 1019.9
20260506130224 53 120 0.0 1.7 0.00 0.00 0.00 89 1020.0
20260506125724 52 121 0.0 1.7 0.00 0.00 0.00 89 1019.7
20260506124725 52 229 0.0 0.0 0.00 0.00 0.00 89 1019.9
20260506124224 52 229 0.0 0.0 0.00 0.00 0.00 89 1019.9
20260506123724 52 229 0.0 0.0 0.00 0.00 0.00 89 1019.9
20260506122724 53 146 0.0 0.0 0.00 0.00 0.00 89 1020.0
20260506122224 53 146 0.0 0.0 0.00 0.00 0.00 89 1019.7
20260506121723 53 129 0.0 1.7 0.00 0.00 0.00 89 1019.5
20260506120725 53 229 0.0 0.0 0.00 0.00 0.00 89 1019.7
20260506120223 53 230 0.0 0.0 0.00 0.00 0.00 89 1019.7
20260506115723 53 230 0.0 1.7 0.00 0.00 0.00 89 1019.7
20260506115223 53 258 1.7 1.7 0.00 0.00 0.00 88 1019.8
20260506114723 53 247 0.0 0.0 0.00 0.00 0.00 88 1019.8
20260506114223 53 170 0.0 0.0 0.00 0.00 0.00 88 1019.8
20260506113723 53 168 0.0 0.0 0.00 0.00 0.00 88 1019.6
20260506113223 53 263 0.0 0.0 0.00 0.00 0.00 88 1019.7
20260506112723 53 262 0.0 1.7 0.00 0.00 0.00 88 1019.7
20260506112223 53 336 0.0 1.7 0.00 0.00 0.00 88 1019.7
20260506111722 53 268 0.0 4.3 0.00 0.00 0.00 88 1019.5
20260506111223 53 48 1.7 4.3 0.00 0.00 0.00 88 1019.5
20260506110722 53 328 2.6 4.3 0.00 0.00 0.00 88 1019.6
20260506110222 53 354 0.0 4.3 0.00 0.00 0.00 89 1019.4
20260506105723 53 20 2.6 4.3 0.00 0.00 0.00 89 1019.3
20260506104722 53 247 0.0 0.0 0.00 0.00 0.00 89 1019.2
20260506104223 53 207 0.0 1.7 0.00 0.00 0.00 88 1019.2
20260506103722 53 252 0.0 1.7 0.00 0.00 0.00 88 1019.1
20260506103222 53 258 0.0 0.0 0.00 0.00 0.00 88 1019.1
20260506102723 53 258 0.0 0.0 0.00 0.00 0.00 88 1019.1
20260506102222 53 11 0.0 0.0 0.00 0.00 0.00 88 1019.0
20260506100723 53 11 0.0 1.7 0.00 0.00 0.00 88 1019.0
20260506095722 53 15 2.6 2.6 0.00 0.00 0.00 88 1019.1
20260506095221 53 293 0.0 2.6 0.00 0.00 0.00 88 1019.1
20260506094721 53 292 2.6 2.6 0.00 0.00 0.00 88 1019.0
20260506094221 53 41 0.0 1.7 0.00 0.00 0.00 88 1019.0
20260506093721 53 41 0.0 1.7 0.00 0.00 0.00 88 1019.0
20260506092720 53 320 0.0 0.0 0.00 0.00 0.00 88 1018.9
20260506092221 53 320 0.0 1.7 0.00 0.00 0.00 88 1018.9
20260506091721 53 320 0.0 1.7 0.00 0.00 0.00 88 1018.8
20260506091220 53 229 0.0 0.0 0.00 0.00 0.00 88 1018.8
20260506090720 53 229 0.0 0.0 0.00 0.00 0.00 88 1018.8
20260506090220 53 229 0.0 0.0 0.00 0.00 0.00 88 1018.8
20260506085720 53 230 0.0 1.7 0.00 0.00 0.00 88 1018.7
20260506085220 53 216 0.0 2.6 0.00 0.00 0.00 88 1018.7
20260506084220 53 271 0.0 6.1 0.00 0.00 0.00 88 1018.7
20260506083720 53 224 0.0 6.1 0.00 0.00 0.00 88 1018.6
20260506083220 53 289 1.7 1.7 0.00 0.00 0.00 88 1018.7
20260506082719 54 343 0.0 0.0 0.00 0.00 0.00 88 1018.7
20260506082220 54 344 0.0 2.6 0.00 0.00 0.00 88 1018.6
20260506081720 53 297 0.0 2.6 0.00 0.00 0.00 88 1018.6
20260506081220 54 297 0.0 0.0 0.00 0.00 0.00 87 1018.6
20260506080719 54 259 0.0 1.7 0.00 0.00 0.00 88 1018.5
20260506073219 54 249 0.0 4.3 0.00 0.00 0.00 87 1018.2
20260506072718 54 203 1.7 4.3 0.00 0.00 0.00 87 1018.1
20260506072219 54 122 0.0 1.7 0.00 0.00 0.00 87 1018.0
20260506071719 54 122 0.0 1.7 0.00 0.00 0.00 87 1017.9
20260506071218 54 296 0.0 1.7 0.00 0.00 0.00 87 1018.0
20260506070218 54 253 0.0 1.7 0.00 0.00 0.00 87 1017.9
20260506062218 54 272 0.0 0.0 0.00 0.00 0.00 87 1017.8
20260506061717 54 311 0.0 1.7 0.00 0.00 0.00 87 1017.8
20260506061217 54 342 0.0 1.7 0.00 0.00 0.00 87 1017.6
20260506060717 55 273 0.0 1.7 0.00 0.00 0.00 87 1017.7
20260506060217 55 219 0.0 0.0 0.00 0.00 0.00 87 1017.7
20260506051217 55 164 0.0 1.7 0.00 0.00 0.00 88 1017.6
20260506044716 55 21 0.0 2.6 0.00 0.00 0.00 88 1017.5
20260506044216 55 21 0.0 2.6 0.00 0.00 0.00 88 1017.5
20260506043716 55 124 0.0 0.0 0.00 0.00 0.00 88 1017.6
20260506043216 55 359 0.0 2.6 0.00 0.00 0.00 88 1017.5
20260506042215 55 332 0.0 1.7 0.00 0.00 0.00 88 1017.3
20260506041716 55 228 0.0 1.7 0.00 0.00 0.00 88 1017.3
20260506041215 55 350 0.0 1.7 0.00 0.00 0.00 88 1017.4
20260506040716 55 351 1.7 2.6 0.00 0.00 0.00 88 1017.3
20260506035215 55 271 0.0 2.6 0.00 0.00 0.00 89 1017.1
20260506034715 55 56 1.7 2.6 0.00 0.00 0.00 89 1017.1
20260506034215 55 279 0.0 2.6 0.00 0.00 0.00 89 1017.1
20260506033715 55 318 0.0 2.6 0.00 0.00 0.00 89 1017.0
20260506033215 55 51 1.7 2.6 0.00 0.00 0.00 89 1017.0
20260506032715 55 8 1.7 1.7 0.00 0.00 0.00 88 1016.9
20260506032215 55 6 0.0 4.3 0.00 0.00 0.00 89 1016.8
20260506031714 55 282 1.7 4.3 0.00 0.00 0.00 88 1016.8
20260506031214 55 321 2.6 4.3 0.00 0.00 0.00 88 1016.8
20260506030715 55 336 0.0 0.0 0.00 0.00 0.00 88 1016.6
20260506030214 55 337 0.0 1.7 0.00 0.00 0.00 88 1016.6
20260506025714 55 326 0.0 1.7 0.00 0.00 0.00 89 1016.6
20260506025214 55 15 0.0 2.6 0.00 0.00 0.00 88 1016.6
20260506024715 56 305 0.0 2.6 0.00 0.00 0.00 88 1016.5
20260506024215 56 13 0.0 2.6 0.00 0.00 0.00 88 1016.6
20260506023214 56 287 1.7 4.3 0.00 0.00 0.00 88 1016.5
20260506022714 56 328 2.6 4.3 0.00 0.00 0.00 88 1016.5
20260506022214 56 297 1.7 4.3 0.00 0.00 0.00 88 1016.3
20260506021214 56 304 1.7 6.1 0.00 0.00 0.00 88 1016.4
20260506020713 56 297 2.6 6.1 0.00 0.00 0.00 87 1016.5
20260506020214 56 288 1.7 6.1 0.00 0.00 0.00 87 1016.5
20260506015214 56 2 2.6 4.3 0.00 0.00 0.00 86 1016.4
20260506014713 57 52 0.0 4.3 0.00 0.00 0.00 87 1016.5
20260506013713 56 303 1.7 6.1 0.00 0.00 0.00 86 1016.6
20260506012713 57 300 2.6 6.1 0.00 0.00 0.00 86 1016.6
20260506011713 57 319 1.7 4.3 0.00 0.00 0.00 85 1016.7
20260506010712 57 262 1.7 1.7 0.00 0.00 0.00 86 1016.6
20260506010213 57 65 0.0 4.3 0.00 0.00 0.00 85 1016.5
20260506005712 57 344 0.0 4.3 0.00 0.00 0.00 85 1016.5
20260506005213 57 45 2.6 4.3 0.00 0.00 0.00 85 1016.6
20260506004712 58 241 4.3 4.3 0.00 0.00 0.00 84 1016.5
20260506004212 58 243 0.0 4.3 0.00 0.00 0.00 84 1016.5
20260506003713 58 27 1.7 6.1 0.00 0.00 0.00 84 1016.4
20260506002712 58 345 4.3 8.7 0.00 0.00 0.00 82 1016.4
20260506002211 58 13 1.7 4.3 0.00 0.00 0.00 83 1016.4
20260506001211 59 143 0.0 4.3 0.00 0.00 0.00 83 1016.6
20260506000711 58 251 0.0 4.3 0.00 0.00 0.00 83 1016.7
20260505235713 58 337 4.3 8.7 0.00 0.00 0.00 84 1016.7
20260505235211 59 315 1.7 8.7 0.00 0.00 0.00 83 1016.8
20260505234711 59 337 1.7 7.8 0.00 0.00 0.00 84 1016.9
20260505234211 58 340 4.3 6.1 0.00 0.00 0.00 84 1017.0
20260505233711 59 330 1.7 6.1 0.00 0.00 0.00 83 1016.9